Weather History for KVER - July, 2013

Change the Weather History Date:

Wednesday, July 17, 2013

  Actual Average (KDMO) Record (KDMO)
Temperature  
Mean Temperature 83 °F 79 °F  
Max Temperature 96 °F 89 °F - ()
Min Temperature 73 °F 69 °F - ()
Degree Days  
Heating Degree Days 0 0  
Month to date heating degree days 0  
Since 1 June heating degree days 6  
Since 1 July heating degree days 0  
Cooling Degree Days 18 14  
Month to date cooling degree days 235  
Year to date cooling degree days 678  
Since 1 June cooling degree days 539  
Growing Degree Days 33 (Base 50)    
Moisture  
Dew Point 71 °F    
Average Humidity 69    
Maximum Humidity 95    
Minimum Humidity 39    
Precipitation  
Precipitation 0.00 in 0.17 in - ()
Month to date precipitation 2.51  
Year to date precipitation 22.75  
Sea Level Pressure  
Sea Level Pressure 30.28 in    
Wind  
Wind Speed 2 mph (SSE)    
Max Wind Speed 7 mph    
Max Gust Speed -    
Visibility 10 miles    
Events      
T = Trace of Precipitation, MM = Missing Value Source: NWS Daily Summary

Daily Weather History Graph

Daily Weather History Graph

Search for Another Location

Airport or City:

Trip Planner

Search our weather history database for the weather conditions in past years. The results will help you decide how hot, cold, wet, or windy it might be!

Date:

Astronomy

Jul. 17, 2013 Rise Set
Actual Time 5:59 AM CDT 8:34 PM CDT
Civil Twilight 5:28 AM CDT 9:05 PM CDT
Nautical Twilight 4:49 AM CDT 9:43 PM CDT
Astronomical Twilight 4:06 AM CDT 10:26 PM CDT
Moon 3:24 PM CDT (7/17) 1:05 AM CDT (7/17)
Length of Visible Light 15h 36m
Length of Day
14h 34m
Waxing Gibbous, 67% of the Moon is Illuminated
Jul 17
Waxing Gibbous
Jul 22
Full
Jul 29
Last Quarter
Aug 6
New
Aug 14
First Quarter

Hourly Weather History & Observations

Time (CDT) Temp. Heat Index Dew Point Humidity Pressure Visibility Wind Dir Wind Speed Gust Speed Precip Events Conditions
12:15 AM 77.2 °F - 71.2 °F 82% 30.28 in 10.0 mi SE 3.5 mph - N/A   Clear
12:35 AM 77.2 °F - 71.6 °F 83% 30.29 in 10.0 mi SE 3.5 mph - N/A   Clear
12:55 AM 77.2 °F - 72.0 °F 84% 30.29 in 10.0 mi SE 4.6 mph - N/A   Clear
1:15 AM 76.3 °F - 72.9 °F 89% 30.29 in 10.0 mi Calm Calm - N/A   Clear
1:35 AM 76.5 °F - 73.2 °F 90% 30.29 in 10.0 mi Calm Calm - N/A   Clear
1:55 AM 76.5 °F - 72.9 °F 89% 30.29 in 10.0 mi SE 3.5 mph - N/A   Clear
2:15 AM 75.4 °F - 72.7 °F 91% 30.29 in 10.0 mi Calm Calm - N/A   Clear
2:35 AM 75.0 °F - 72.5 °F 92% 30.29 in 10.0 mi Calm Calm - N/A   Clear
2:55 AM 75.0 °F - 72.5 °F 92% 30.29 in 10.0 mi Calm Calm - N/A   Clear
3:15 AM 74.7 °F - 72.3 °F 92% 30.29 in 10.0 mi Calm Calm - N/A   Clear
3:35 AM 74.8 °F - 72.1 °F 91% 30.29 in 10.0 mi Calm Calm - N/A   Clear
3:55 AM 74.7 °F - 72.0 °F 91% 30.29 in 10.0 mi Calm Calm - N/A   Clear
4:15 AM 74.7 °F - 72.0 °F 91% 30.29 in 10.0 mi Calm Calm - N/A   Clear
4:35 AM 74.1 °F - 72.0 °F 93% 30.29 in 10.0 mi Calm Calm - N/A   Clear
4:55 AM 73.6 °F - 72.0 °F 95% 30.29 in 10.0 mi Calm Calm - N/A   Clear
5:15 AM 73.9 °F - 71.6 °F 92% 30.29 in 10.0 mi Calm Calm - N/A   Clear
5:35 AM 73.9 °F - 71.4 °F 92% 30.30 in 10.0 mi Calm Calm - N/A   Clear
5:55 AM 73.0 °F - 71.4 °F 95% 30.30 in 10.0 mi Calm Calm - N/A   Clear
6:15 AM 73.6 °F - 71.6 °F 93% 30.30 in 10.0 mi Calm Calm - N/A   Clear
6:35 AM 73.8 °F - 71.6 °F 93% 30.31 in 10.0 mi Calm Calm - N/A   Clear
6:55 AM 75.0 °F - 72.5 °F 92% 30.31 in 10.0 mi Calm Calm - N/A   Clear
7:15 AM 77.4 °F - 73.0 °F 86% 30.31 in 10.0 mi Calm Calm - N/A   Clear
7:35 AM 78.4 °F - 73.2 °F 84% 30.32 in 10.0 mi SSE 3.5 mph - N/A   Clear
7:55 AM 78.8 °F - 72.9 °F 82% 30.33 in 10.0 mi Calm Calm - N/A   Clear
8:15 AM 79.0 °F - 72.9 °F 81% 30.33 in 10.0 mi South 3.5 mph - N/A   Clear
8:35 AM 80.6 °F 85.4 °F 73.6 °F 79% 30.33 in 10.0 mi Calm Calm - N/A   Clear
8:55 AM 81.9 °F 87.0 °F 73.0 °F 74% 30.33 in 10.0 mi Calm Calm - N/A   Clear
9:15 AM 83.1 °F 88.1 °F 71.4 °F 68% 30.33 in 10.0 mi SSW 3.5 mph - N/A   Clear
9:35 AM 84.2 °F 88.7 °F 70.5 °F 63% 30.34 in 10.0 mi SW 4.6 mph - N/A   Clear
9:55 AM 85.3 °F 90.4 °F 70.7 °F 62% 30.33 in 10.0 mi SW 3.5 mph - N/A   Clear
10:15 AM 86.0 °F 90.7 °F 70.3 °F 59% 30.33 in 10.0 mi Calm Calm - N/A   Clear
10:35 AM 87.4 °F 92.3 °F 70.2 °F 56% 30.33 in 10.0 mi West 3.5 mph - N/A   Clear
10:55 AM 87.6 °F 91.9 °F 69.1 °F 54% 30.33 in 10.0 mi West 4.6 mph - N/A   Clear
11:15 AM 87.4 °F 90.8 °F 68.0 °F 52% 30.33 in 10.0 mi West 4.6 mph - N/A   Scattered Clouds
11:35 AM 87.8 °F 92.2 °F 69.3 °F 54% 30.33 in 10.0 mi SW 4.6 mph - N/A   Scattered Clouds
11:55 AM 87.8 °F 91.4 °F 68.0 °F 52% 30.32 in 10.0 mi Calm Calm - N/A   Mostly Cloudy
12:15 PM 87.3 °F 91.2 °F 68.5 °F 54% 30.32 in 10.0 mi WSW 3.5 mph - N/A   Mostly Cloudy
12:35 PM 89.1 °F 92.9 °F 68.2 °F 50% 30.32 in 10.0 mi North 3.5 mph - N/A   Scattered Clouds
12:55 PM 89.4 °F 93.1 °F 68.2 °F 49% 30.31 in 10.0 mi North 3.5 mph - N/A   Mostly Cloudy
1:15 PM 88.2 °F 92.1 °F 68.7 °F 52% 30.31 in 10.0 mi Calm Calm - N/A   Mostly Cloudy
1:35 PM 88.3 °F 91.6 °F 67.8 °F 50% 30.30 in 10.0 mi Calm Calm - N/A   Mostly Cloudy
1:55 PM 89.6 °F 93.0 °F 67.3 °F 48% 30.30 in 10.0 mi NE 3.5 mph - N/A   Mostly Cloudy
2:15 PM 91.9 °F 95.4 °F 67.3 °F 44% 30.29 in 10.0 mi East 3.5 mph - N/A   Scattered Clouds
2:35 PM 91.2 °F 95.0 °F 67.6 °F 46% 30.28 in 10.0 mi SSE 3.5 mph - N/A   Scattered Clouds
2:55 PM 90.9 °F 94.8 °F 68.2 °F 47% 30.28 in 10.0 mi Calm Calm - N/A   Scattered Clouds
3:15 PM 91.2 °F 95.5 °F 68.5 °F 47% 30.27 in 10.0 mi SSE 6.9 mph - N/A   Scattered Clouds
3:35 PM 92.7 °F 96.2 °F 66.9 °F 43% 30.27 in 10.0 mi SSE 5.8 mph - N/A   Clear
3:55 PM 93.0 °F 95.5 °F 65.1 °F 40% 30.26 in 10.0 mi SE 3.5 mph - N/A   Clear
4:15 PM 93.6 °F 96.4 °F 65.7 °F 40% 30.25 in 10.0 mi East 4.6 mph - N/A   Clear
4:35 PM 93.4 °F 96.1 °F 65.7 °F 40% 30.25 in 10.0 mi SSE 3.5 mph - N/A   Clear
4:55 PM 93.7 °F 96.2 °F 65.7 °F 39% 30.24 in 10.0 mi SSE 3.5 mph - N/A   Clear
5:15 PM 93.9 °F 97.5 °F 66.7 °F 41% 30.23 in 10.0 mi SE 5.8 mph - N/A   Scattered Clouds
5:35 PM 92.8 °F 96.6 °F 67.1 °F 43% 30.23 in 10.0 mi ESE 5.8 mph - N/A   Clear
5:55 PM 92.3 °F 97.0 °F 68.7 °F 46% 30.22 in 10.0 mi SE 5.8 mph - N/A   Clear
6:15 PM 89.8 °F 94.2 °F 69.1 °F 50% 30.22 in 10.0 mi SE 4.6 mph - N/A   Clear
6:35 PM 88.3 °F 93.6 °F 70.2 °F 55% 30.22 in 10.0 mi Calm Calm - N/A   Clear
6:55 PM 87.8 °F 93.8 °F 71.4 °F 58% 30.21 in 10.0 mi Calm Calm - N/A   Clear
7:15 PM 88.5 °F 94.9 °F 71.4 °F 57% 30.20 in 10.0 mi ESE 3.5 mph - N/A   Clear
7:35 PM 88.9 °F 94.2 °F 70.3 °F 54% 30.20 in 10.0 mi Calm Calm - N/A   Clear
7:55 PM 88.0 °F 94.2 °F 71.4 °F 58% 30.20 in 10.0 mi Calm Calm - N/A   Clear
8:15 PM 86.9 °F 93.3 °F 72.0 °F 61% 30.20 in 10.0 mi Calm Calm - N/A   Clear
8:35 PM 84.0 °F 90.2 °F 73.0 °F 69% 30.20 in 10.0 mi Calm Calm - N/A   Clear
8:55 PM 82.9 °F 88.5 °F 72.7 °F 71% 30.20 in 10.0 mi Calm Calm - N/A   Clear
9:15 PM 82.0 °F 87.2 °F 72.5 °F 73% 30.20 in 10.0 mi Calm Calm - N/A   Clear
9:35 PM 80.8 °F 85.2 °F 72.5 °F 76% 30.21 in 10.0 mi Calm Calm - N/A   Clear
9:55 PM 81.0 °F 85.1 °F 71.4 °F 73% 30.22 in 10.0 mi Calm Calm - N/A   Clear
10:15 PM 79.7 °F - 71.2 °F 75% 30.22 in 10.0 mi Calm Calm - N/A   Clear
10:35 PM 79.0 °F - 71.8 °F 78% 30.22 in 10.0 mi Calm Calm - N/A   Clear
10:55 PM 78.8 °F - 72.5 °F 81% 30.23 in 10.0 mi Calm Calm - N/A   Clear
11:15 PM 78.3 °F - 73.4 °F 85% 30.23 in 10.0 mi Calm Calm - N/A   Clear
11:35 PM 78.3 °F - 73.8 °F 86% 30.23 in 10.0 mi Calm Calm - N/A   Clear
11:55 PM 77.9 °F - 74.3 °F 89% 30.23 in 10.0 mi Calm Calm - N/A   Clear